[[{"header":{"parameterUnit":"m.s-1","parameterCategory":1,"la1":30.2991,"la2":30.254,"lo1":-89.0895,"lo2":-89.0444,"dy":0.0017,"dx":0.0017,"nx":28,"ny":28,"refTime":"2024-05-28T09:00:00:Z","depth":0,"parameterNumber":2,"parameterNumberName":"U-component_of_WINDS"},"data":[0,0,0,0,0,0,0,0,0,0,0,0,0,0,0,0,0,0,0,0,0,0,0,0,0,0,0,0,0,0,0,0,0,0,0,0,0,0,0,0,0,0,0,0,0,0,0,0,0,0,0,0,0,0,0,0,0,0,1.5696,1.5696,0,1.5702,1.5702,1.5702,1.5613,1.5611,1.5609,1.5606,1.5613,1.5616,1.5618,0,0,0,0,0,0,0,0,0,0,0,0,0,1.5608,1.561,1.5696,1.5696,1.5696,1.5702,1.5702,1.5702,1.5614,1.5611,1.5608,1.5605,1.5612,1.5615,1.5618,0,0,0,0,0,0,0,0,0,0,0,0,0,1.5634,1.5611,1.5696,1.5653,1.5649,1.5702,1.5702,1.5702,1.5614,1.5611,1.5607,1.5604,1.5611,1.5615,1.5619,1.5713,0,0,1.563,1.5631,0,0,0,0,0,0,0,0,1.5632,1.5637,1.5659,1.5656,1.5651,1.5653,1.5673,1.5706,1.5615,1.5628,1.5606,1.5602,1.5629,1.5631,1.564,1.5714,1.5714,1.563,1.5632,1.5634,1.5635,0,0,0,0,0,0,0,1.5631,1.5636,1.5698,1.5659,1.5655,1.5633,1.5633,1.5679,1.5649,1.5626,1.562,1.5622,1.5627,1.5637,1.564,1.5714,1.563,1.5633,1.5635,1.5637,1.5868,1.5871,0,0,0,0,0,0,1.5635,1.5635,1.5698,1.5698,1.5633,1.5638,1.5637,1.5656,1.5648,1.5643,1.5625,1.5618,1.5633,1.5636,1.564,1.5753,1.5634,1.5637,1.5639,1.5864,1.5869,1.5873,0,0,0,0,0,0,1.5633,1.5641,1.5698,1.5665,1.5671,1.5643,1.5665,1.5658,1.5669,1.5647,1.5641,1.5641,1.563,1.5635,1.5696,1.5752,1.5639,1.5642,1.5859,1.5865,1.5871,1.5978,0,0,0,0,0,0,1.5631,1.5641,1.5677,1.5667,1.5673,1.5754,1.5668,1.5661,1.5675,1.5666,1.5661,1.5656,1.5628,1.5691,1.57,1.5755,1.5645,1.5854,1.5862,1.5869,1.597,1.5987,1.6002,0,0,0,0,0,1.5628,1.5706,1.5679,1.5687,1.5717,1.5758,1.5761,1.5726,1.568,1.5716,1.5702,1.5657,1.5743,1.5698,1.5707,1.5764,1.5851,1.586,1.5868,1.5963,1.5984,1.6002,0,0,0,0,0,0,1.5724,1.5704,1.5674,1.5751,1.5757,1.5743,1.5787,1.575,1.5769,1.5759,1.5715,1.5714,1.5784,1.5779,1.5729,1.5856,1.5789,1.58,1.5858,1.5878,1.5893,1.5895,1.5648,0,0,0,0,0,1.5754,1.5789,1.5769,1.584,1.5844,1.5815,1.5832,1.5804,1.5808,1.5811,1.5801,1.5807,1.5836,1.5856,1.5881,1.5967,1.5966,1.6011,1.6027,1.604,1.6052,1.61,1.612,1.5902,1.5902,1.5902,0,0,1.5817,1.581,1.5835,1.5859,1.586,1.5898,1.5818,1.5861,1.5889,1.5817,1.5876,1.5868,1.5872,1.5948,1.598,1.5946,1.6111,1.6052,1.6062,1.6066,1.6111,1.6132,1.615,1.5908,1.5907,1.5906,0,0,1.5951,1.5949,1.6008,1.6011,1.6014,1.5994,1.6008,1.6,1.5993,1.605,1.5998,1.603,1.608,1.6086,1.6095,1.6232,1.6192,1.6241,1.6327,1.6374,1.6391,1.6406,1.6458,1.6477,1.6251,1.6251,1.6252,0,1.6029,1.6084,1.6043,1.6091,1.6103,1.6039,1.61,1.6104,1.6116,1.6126,1.6087,1.615,1.6147,1.6224,1.6258,1.6266,1.6283,1.6243,1.6392,1.6407,1.642,1.6469,1.6488,1.6258,1.6257,1.6256,1.6256,0,1.6181,1.622,1.6267,1.6281,1.6298,1.6351,1.632,1.6342,1.6313,1.6298,1.6358,1.6353,1.6377,1.6392,1.6363,1.6466,1.6445,1.6399,1.6331,1.6448,1.6493,1.6511,1.6267,1.6264,1.6262,1.6261,0,0,1.6379,1.6368,1.6387,1.6393,1.6391,1.642,1.6471,1.6494,1.6516,1.6525,1.6568,1.6612,1.657,1.6581,1.6552,1.6593,1.6705,1.6543,1.6542,1.6576,1.6821,1.6858,1.688,1.6677,1.668,1.6683,1.6822,0,1.6513,1.6599,1.6564,1.6654,1.6691,1.663,1.6674,1.6679,1.6665,1.6694,1.6679,1.6712,1.6653,1.666,1.6697,1.6684,1.6754,1.6673,1.6719,1.6721,1.6724,1.6903,1.6942,1.7074,1.6839,1.6842,1.6844,0,1.6681,1.6698,1.6792,1.6785,1.6799,1.684,1.6859,1.6887,1.689,1.6878,1.689,1.6852,1.6902,1.6832,1.6901,1.6847,1.6863,1.6859,1.6863,1.6869,1.6792,1.6918,1.7114,1.7136,1.6871,1.6869,1.6867,0,1.682,1.6866,1.6929,1.6935,1.6928,1.6958,1.6956,1.6956,1.6973,1.6989,1.7,1.7022,1.7035,1.7053,1.7023,1.6974,1.7098,1.7024,1.7091,1.7092,1.7123,1.7122,1.7329,1.7127,1.7127,1.7126,1.7126,0,1.6975,1.7036,1.6992,1.7031,1.7098,1.7056,1.7123,1.7114,1.7115,1.7152,1.7099,1.7135,1.7091,1.7123,1.7098,1.7162,1.7166,1.7159,1.7153,1.7166,1.7168,1.7179,1.7171,1.7132,1.713,1.7129,1.7129,0,1.7144,1.7116,1.7181,1.7169,1.7167,1.7217,1.7206,1.7243,1.7225,1.7272,1.7281,1.7254,1.7289,1.7259,1.7292,1.7276,1.7361,1.7339,1.7361,1.7356,1.7426,1.7422,1.7651,1.768,1.7456,1.7458,1.746,0,1.7247,1.7293,1.7285,1.7306,1.7308,1.7342,1.7359,1.7319,1.7339,1.7347,1.7383,1.7413,1.7435,1.7494,1.7478,1.7503,1.7484,1.7563,1.7488,1.7501,1.749,1.749,1.7495,1.7579,1.7582,1.7584,1.7586,0,1.7434,1.7418,1.7445,1.7467,1.7489,1.7504,1.7516,1.7536,1.7495,1.752,1.7555,1.7573,1.7607,1.7639,1.7659,1.7657,1.7617,1.7609,1.7626,1.7643,1.7655,1.7653,1.7406,1.7605,1.7603,1.7601,1.76,1.76,1.7576,1.7614,1.7615,1.7647,1.7651,1.7663,1.7697,1.7684,1.7712,1.7738,1.7711,1.7755,1.7758,1.7781,1.7784,1.7818,1.7785,1.781,1.7817,1.7825,1.7837,1.7646,1.7821,1.782,1.782,1.7819,1.7819,0,1.7763,1.7761,1.779,1.7808,1.7833,1.779,1.7801,1.7825,1.7864,1.787,1.7893,1.7934,1.7964,1.795,1.7977,1.8007,1.7989,1.8016,1.8015,1.8016,1.7862,1.7846,1.803,1.803,1.803,1.803,1.803,1.803,1.7864,1.7928,1.7912,1.7978,1.7975,1.8017,1.8027,1.8039,1.8043,1.8092,1.8117,1.8107,1.8105,1.8131,1.8157,1.8152,1.8166,1.8201,1.819,1.8047,1.8027,1.8007,1.7992,1.8203,1.8204,1.8341,1.8343,1.8344]},{"header":{"parameterUnit":"m.s-1","parameterCategory":1,"la1":30.2991,"la2":30.254,"lo1":-89.0895,"lo2":-89.0444,"dy":0.0017,"dx":0.0017,"nx":28,"ny":28,"refTime":"2024-05-28T09:00:00:Z","depth":0,"parameterNumber":3,"parameterNumberName":"V-component_of_WINDS"},"data":[0,0,0,0,0,0,0,0,0,0,0,0,0,0,0,0,0,0,0,0,0,0,0,0,0,0,0,0,0,0,0,0,0,0,0,0,0,0,0,0,0,0,0,0,0,0,0,0,0,0,0,0,0,0,0,0,0,0,-1.969,-1.9691,0,-1.9786,-1.9787,-1.9788,-1.9819,-1.9818,-1.9818,-1.9818,-1.9915,-1.9918,-1.992,0,0,0,0,0,0,0,0,0,0,0,0,0,-1.9535,-1.9538,-1.969,-1.9691,-1.9693,-1.9786,-1.9787,-1.9788,-1.9819,-1.9818,-1.9818,-1.9817,-1.9914,-1.9917,-1.9921,0,0,0,0,0,0,0,0,0,0,0,0,0,-1.9614,-1.9539,-1.969,-1.9719,-1.9723,-1.9785,-1.9787,-1.9789,-1.9819,-1.9818,-1.9818,-1.9817,-1.9912,-1.9917,-1.9921,-1.9962,0,0,-1.9935,-1.9937,0,0,0,0,0,0,0,0,-1.9609,-1.9619,-1.9714,-1.9717,-1.9721,-1.979,-1.9768,-1.9847,-1.9819,-1.9782,-1.9818,-1.9817,-1.9874,-1.9881,-1.99,-1.9966,-1.997,-1.9935,-1.9938,-1.994,-1.9941,0,0,0,0,0,0,0,-1.9604,-1.9615,-1.9728,-1.9715,-1.972,-1.9728,-1.9738,-1.9783,-1.983,-1.9786,-1.9788,-1.9799,-1.9876,-1.9896,-1.9903,-1.9972,-1.9935,-1.9939,-1.9942,-1.9944,-2.0078,-2.0079,0,0,0,0,0,0,-1.9593,-1.9611,-1.9725,-1.9731,-1.9663,-1.9731,-1.9743,-1.9768,-1.983,-1.9839,-1.9799,-1.98,-1.9889,-1.9898,-1.9907,-1.9959,-1.994,-1.9944,-1.9947,-2.0077,-2.0078,-2.0079,0,0,0,0,0,0,-1.959,-1.9603,-1.9721,-1.9672,-1.9687,-1.9734,-1.9763,-1.9771,-1.9791,-1.9841,-1.9849,-1.9812,-1.9889,-1.99,-1.9948,-1.9963,-1.9946,-1.995,-2.0076,-2.0077,-2.0078,-2.0063,0,0,0,0,0,0,-1.9585,-1.9602,-1.9617,-1.9672,-1.969,-1.9761,-1.9764,-1.9773,-1.9799,-1.9801,-1.9854,-1.9862,-1.9889,-1.9941,-1.9953,-1.9969,-1.9954,-2.0075,-2.0076,-2.0078,-2.0063,-2.0064,-2.0065,0,0,0,0,0,-1.958,-1.9608,-1.9618,-1.9631,-1.971,-1.9761,-1.9772,-1.9802,-1.98,-1.9816,-1.9848,-1.9861,-1.996,-1.9946,-1.9959,-1.9976,-2.0074,-2.0076,-2.0078,-2.0062,-2.0064,-2.0065,0,0,0,0,0,0,-1.9553,-1.9616,-1.9627,-1.9674,-1.9713,-1.9767,-1.9788,-1.9802,-1.9842,-1.9841,-1.9877,-1.9889,-1.9935,-1.9961,-1.9944,-2.002,-2.0017,-2.0022,-2.0001,-2.0003,-2.0004,-1.9996,-1.9957,0,0,0,0,0,-1.9553,-1.959,-1.9643,-1.9679,-1.9698,-1.974,-1.9763,-1.9784,-1.9824,-1.984,-1.9876,-1.9915,-1.9955,-1.9981,-2.002,-2.0067,-2.008,-2.0086,-2.0087,-2.0088,-2.0091,-2.0119,-2.0123,-2.0085,-2.0085,-2.0085,0,0,-1.9553,-1.9592,-1.9612,-1.9675,-1.9707,-1.9745,-1.9753,-1.9792,-1.982,-1.9846,-1.9894,-1.9922,-1.9968,-2.0016,-2.0039,-2.0039,-2.0105,-2.009,-2.009,-2.0093,-2.0122,-2.0125,-2.0128,-2.0087,-2.0087,-2.0086,0,0,-1.9571,-1.9604,-1.9639,-1.9672,-1.972,-1.9748,-1.9757,-1.981,-1.9829,-1.9878,-1.9899,-1.9934,-2.0001,-2.0034,-2.0059,-2.0094,-2.0107,-2.0106,-2.0111,-2.0138,-2.0141,-2.0144,-2.0157,-2.0161,-2.0109,-2.0109,-2.0109,0,-1.9564,-1.9622,-1.9655,-1.9694,-1.9721,-1.9748,-1.9784,-1.9814,-1.9873,-1.9891,-1.9891,-1.9978,-2.0011,-2.0068,-2.0077,-2.0096,-2.0107,-2.0099,-2.0138,-2.0141,-2.0145,-2.0157,-2.0162,-2.0109,-2.0109,-2.0109,-2.0109,0,-1.9612,-1.9651,-1.9674,-1.9731,-1.9761,-1.9798,-1.9838,-1.9864,-1.9883,-1.9911,-1.9962,-2.0003,-2.0051,-2.0067,-2.0084,-2.0127,-2.0126,-2.0131,-2.0129,-2.0147,-2.016,-2.0165,-2.0108,-2.0108,-2.0108,-2.0108,0,0,-1.9614,-1.9691,-1.9699,-1.9726,-1.9783,-1.9815,-1.9854,-1.9903,-1.9925,-1.9966,-2.0,-2.0058,-2.0065,-2.0094,-2.0116,-2.014,-2.0166,-2.0143,-2.0145,-2.0146,-2.0216,-2.0211,-2.0215,-2.0175,-2.0176,-2.0177,-2.0212,0,-1.964,-1.9711,-1.9743,-1.9799,-1.9837,-1.9865,-1.9899,-1.9938,-1.9967,-2.0003,-2.0034,-2.0075,-2.008,-2.0098,-2.0123,-2.0157,-2.018,-2.0155,-2.0208,-2.0209,-2.0194,-2.0222,-2.0216,-2.0247,-2.0217,-2.0218,-2.0218,0,-1.9679,-1.9721,-1.9781,-1.9836,-1.9853,-1.9883,-1.9932,-1.9966,-2.0012,-2.0031,-2.0065,-2.0086,-2.0129,-2.0126,-2.0186,-2.0168,-2.0192,-2.0212,-2.0214,-2.022,-2.0214,-2.0228,-2.0257,-2.0261,-2.0226,-2.0226,-2.0225,0,-1.9675,-1.9746,-1.9792,-1.9815,-1.988,-1.99,-1.9928,-1.9974,-2.0002,-2.0044,-2.0063,-2.011,-2.0135,-2.0171,-2.0206,-2.02,-2.0263,-2.0262,-2.028,-2.0279,-2.0291,-2.029,-2.0324,-2.0307,-2.0307,-2.0307,-2.0307,0,-1.97,-1.9736,-1.9792,-1.982,-1.9862,-1.9899,-1.994,-1.997,-2.001,-2.0045,-2.0072,-2.0104,-2.0148,-2.0186,-2.0213,-2.026,-2.0271,-2.0288,-2.0295,-2.0285,-2.0283,-2.0301,-2.0299,-2.0309,-2.0308,-2.0308,-2.0308,0,-1.9702,-1.974,-1.9792,-1.985,-1.9866,-1.9894,-1.9944,-1.9973,-2.0004,-2.0048,-2.006,-2.0108,-2.0155,-2.0193,-2.0254,-2.0272,-2.0321,-2.0329,-2.0305,-2.0309,-2.0325,-2.0323,-2.0371,-2.038,-2.0357,-2.0357,-2.0358,0,-1.9715,-1.9743,-1.9805,-1.9831,-1.9859,-1.99,-1.9929,-1.9968,-1.9997,-2.0053,-2.0075,-2.0124,-2.0165,-2.0238,-2.0279,-2.0326,-2.0335,-2.0349,-2.0342,-2.0332,-2.0335,-2.0333,-2.0336,-2.0349,-2.0349,-2.0349,-2.0349,0,-1.9734,-1.9753,-1.9794,-1.9842,-1.9877,-1.9917,-1.9957,-1.9977,-2.0024,-2.0055,-2.0104,-2.0136,-2.0199,-2.0247,-2.0299,-2.0329,-2.0347,-2.0351,-2.0358,-2.0348,-2.0334,-2.0342,-2.0307,-2.035,-2.035,-2.035,-2.035,-2.035,-1.9742,-1.9769,-1.9818,-1.9863,-1.9899,-1.9936,-1.9967,-2.0002,-2.0043,-2.0098,-2.0119,-2.0169,-2.0216,-2.0288,-2.0318,-2.0358,-2.036,-2.0369,-2.0372,-2.0373,-2.0372,-2.0328,-2.0367,-2.0367,-2.0367,-2.0367,-2.0367,0,-1.9763,-1.9796,-1.9838,-1.9895,-1.9931,-1.9946,-1.9993,-2.0022,-2.0066,-2.0108,-2.0149,-2.0205,-2.0253,-2.0298,-2.0348,-2.0372,-2.0381,-2.0383,-2.0382,-2.0388,-2.0367,-2.0356,-2.0375,-2.0375,-2.0375,-2.0375,-2.0375,-2.0375,-1.9778,-1.9826,-1.985,-1.9916,-1.9949,-1.9998,-2.0024,-2.0059,-2.0094,-2.0156,-2.0196,-2.0225,-2.027,-2.0324,-2.0368,-2.0381,-2.0398,-2.0398,-2.0412,-2.0391,-2.039,-2.0388,-2.0378,-2.0401,-2.0401,-2.043,-2.043,-2.043]}]]